Location: Devils Tower National Monument
(44.5904°N, 104.7201°W)
Time: 19:01:28
(UTC-07:00)

Envisat - Pass Details

Date: 25 January 2020
Orbit: 764 x 766 km, 98.1° (Epoch: 25 February)

Event Time Altitude Azimuth Distance (km) Brightness Sun altitude
Rises 18:48:26 0° 200° (SSW) 3,217 6.6 -19.6°
Reaches altitude 10° 18:51:09 10° 214° (SW) 2,296 6.0 -20.1°
Maximum altitude 18:55:11 24° 267° (W) 1,566 5.4 -20.8°
Drops below altitude 10° 18:59:13 10° 320° (NW) 2,310 5.9 -21.5°
Sets 19:01:59 0° 335° (NNW) 3,241 6.5 -22.0°
